Regional Weather Roundup
Issued by NWS

Home | Current Version | Previous Version | Graphics & Text | Print | Product List | Glossary On
Versions: 1 2 3 4 5 6 7 8 9 10 11 12 13 14 15 16 17 18 19 20 21 22 23 24 25 26 27 28 29 30 31 32 33 34 35 36 37 38 39 40 41 42 43 44 45 46 47 48 49 50
000
ASUS43 KDMX 181806
RWRIA

WEATHER ROUNDUP FOR IOWA
NATIONAL WEATHER SERVICE DES MOINES IA
100 PM CDT WED APR 18 2018

NOTE: "FAIR" INDICATES FEW OR NO CLOUDS BELOW 12,000 FEET WITH NO
SIGNIFICANT WEATHER AND/OR OBSTRUCTIONS TO VISIBILITY.

* - THESE STATIONS ARE NOT NWS STATIONS...THUS NOT UNDER NWS
QUALITY CONTROL.  THEY ALSO DO NOT REPORT WEATHER SUCH
AS PRECIPITATION OR FOG.

IAZ001>003-012>014-020>022-031>034-043>046-181900-
   NORTHWEST IOWA

CITY           SKY/WX    TMP DP  RH WIND       PRES   REMARKS
CARROLL *      MIX PCPN  32  28  86 N16       29.95R WCI  21
CHEROKEE *     LGT SNOW  33  30  91 N16G23    29.99R WCI  22
DENISON *      MIX PCPN  32  28  86 N16       29.98R WCI  21
LE MARS *      LGT SNOW  34  30  86 N15G24    30.02R WCI  24
ORANGE CITY *  LGT SNOW  34  32  93 N14G23    30.00R WCI  24
SHELDON *      MIX PCPN  32  32 100 N21       29.98R VSB 3/4 WCI  20
SIOUX CITY     CLOUDY    35  28  75 N22G30    30.02R WCI  23
6HR MIN TEMP:  31; 6HR MAX TEMP:  35; 6HR PCP:  0.08;

SPENCER        LGT SNOW  33  28  81 N17       29.98R VSB 1   WCI  22
6HR MIN TEMP:  29; 6HR MAX TEMP:  33; 6HR PCP:  0.25;

STORM LAKE *   LGT RAIN  30  28  93 N17       29.96R WCI  18
$$

IAZ055>058-069>071-079>083-090>094-181900-
   SOUTHWEST IOWA

CITY           SKY/WX    TMP DP  RH WIND       PRES   REMARKS
ATLANTIC *     CLOUDY    34  28  80 N16G24    29.96R WCI  23
AUDUBON *      CLOUDY    32  28  86 N16G22    29.96R WCI  21
CLARINDA *     CLOUDY    36  28  75 NW16G25   30.00R WCI  26
COUNCIL BLFS * CLOUDY    37  34  87 N18       29.98S WCI  27
CRESTON *      CLOUDY    34  30  86 N17G25    29.93R WCI  23
HARLAN  *      CLOUDY    34  32  93 N16G23    30.00R WCI  23
LAMONI         CLOUDY    35  28  75 NW22G30   29.90R WCI  23
6HR MIN TEMP:  35; 6HR MAX TEMP:  39;

RED OAK *      CLOUDY    37  30  75 N20G25    29.98R WCI  27
SHENANDOAH *   CLOUDY    39  30  70 NW21G26   30.00R WCI  29
$$

IAZ047>049-059>061-072>074-084-181900-
   CENTRAL IOWA

CITY           SKY/WX    TMP DP  RH WIND       PRES   REMARKS
AMES           CLOUDY    32  28  85 N13       29.91R WCI  22
6HR MIN TEMP:  31; 6HR MAX TEMP:  32; 6HR PCP:  0.09;

ANKENY *       CLOUDY    32  30  93 N13       29.92R WCI  22
BOONE *        MIX PCPN  32  28  86 N14       29.91R WCI  22
CHARITON *     MIX PCPN  32  30  93 NW17      29.88R WCI  21
DES MOINES     CLOUDY    33  29  85 N15       29.91R WCI  23
6HR MIN TEMP:  32; 6HR MAX TEMP:  35; 6HR PCP:  0.01;

GRINNELL*      MIX PCPN  31  30  95 N13       29.88R WCI  22
KNOXVILLE *    LGT RAIN  32  32 100 N15       29.87R WCI  22
MARSHALLTOWN   LGT SNOW  31  29  92 N18       29.88R FOG     WCI  19
6HR MIN TEMP:  30; 6HR MAX TEMP:  32; 6HR PCP:  0.17;

NEWTON *       CLOUDY    32  30  93 N10G17    29.88R FOG     WCI  24
PELLA *        RAIN      32  31  97 NW10      29.89R WCI  24
PERRY *        CLOUDY    32  31  94 N17       29.93R WCI  21
$$

IAZ004>006-015-016-023>025-035-036-181900-
   NORTH CENTRAL IOWA

CITY           SKY/WX    TMP DP  RH WIND       PRES   REMARKS
ALGONA *       FOG       30  28  93 N12       29.94R VSB 3/4 WCI  21
CLARION *      FOG       30  28  93 N14       29.92R VSB 3/4 WCI  20
ESTHERVILLE    LGT SNOW  30  28  92 N16       29.96R VSB 3/4 WCI  19
6HR MIN TEMP:  27; 6HR MAX TEMP:  30; 6HR PCP:  0.10;

FORT DODGE *   LGT SNOW  34  27  75 N9        29.95R VSB 3/4 WCI  26
MASON CITY     LGT SNOW  30  28  92 N13       29.92R VSB 1   WCI  20
6HR MIN TEMP:  28; 6HR MAX TEMP:  30; 6HR PCP:  0.29;

FOREST CITY *  LGT SNOW  32  30  93 N13       29.92S WCI  22
WEBSTER CITY * RAIN      32  30  93 N17       29.90R WCI  21
IOWA FALLS *   LGT SNOW  32  29  86 N12       29.90R WCI  23
$$

IAZ007>011-017>019-026>030-037>042-050>054-066-181900-
   NORTHEAST IOWA

CITY           SKY/WX    TMP DP  RH WIND       PRES   REMARKS
CEDAR RAPIDS   CLOUDY    32  30  92 NE9       29.81R FOG     WCI  24
6HR MIN TEMP:  32; 6HR MAX TEMP:  34; 6HR PCP:  0.09;

CHARLES CITY * SNOW      30  30 100 N10       29.90R VSB 1/2 WCI  21
CLINTON *      MIX PCPN  33  31  92 NE15      29.79R FOG     WCI  23
DECORAH *      SNOW      28  28 100 N8        29.85S VSB 1/4 WCI  20
DUBUQUE        CLOUDY    30  27  88 NE14G24   29.79F FOG     WCI  19
6HR MIN TEMP:  30; 6HR MAX TEMP:  32; 6HR PCP:  0.25;

MONTICELLO *   PTSUNNY   32  30  93 NE10G18   29.80R WCI  24
OELWEIN *      MIX PCPN  30  30 100 N14       29.86R WCI  20
WATERLOO       LGT SNOW  30  28  92 N14       29.87R FOG     WCI  19
6HR MIN TEMP:  29; 6HR MAX TEMP:  30; 6HR PCP:  0.26;

$$

IAZ064-065-067-068-078-181900-
   EAST CENTRAL IOWA

CITY           SKY/WX    TMP DP  RH WIND       PRES   REMARKS
DAVENPORT      CLOUDY    33  30  88 NE10      29.80R FOG     WCI  25
6HR MIN TEMP:  32; 6HR MAX TEMP:  34; 6HR PCP:  0.01;

IOWA CITY      CLOUDY    33  30  88 NE12      29.82R FOG     WCI  24
6HR MIN TEMP:  33; 6HR MAX TEMP:  35; 6HR PCP:  0.02;

MT. PLEASANT * CLOUDY    34  30  86 N6        29.80R WCI  29
MUSCATINE *    CLOUDY    36  32  87 NE10      29.80R WCI  28
QUAD CITIES    CLOUDY    34  31  88 NE10      29.78R FOG     WCI  26
6HR MIN TEMP:  34; 6HR MAX TEMP:  36;

$$

IAZ062-063-075>077-085>089-095>099-181900-
   SOUTHEAST IOWA

CITY           SKY/WX    TMP DP  RH WIND       PRES   REMARKS
BURLINGTON     CLOUDY    38  29  70 N10       29.77R WCI  31
6HR MIN TEMP:  35; 6HR MAX TEMP:  38;

FAIRFIELD *    CLOUDY    34  30  86 N8        29.81R WCI  27
FORT MADISON * CLOUDY    37  30  75 NW6       29.79R WCI  33
KEOKUK *       CLOUDY    41  30  65 W12       29.79R
OSKALOOSA *    DRIZZLE   32  32  99 N10       29.85R WCI  24
CENTERVILLE *    N/A     34  32  93 W16       29.87R WCI  23
OTTUMWA        MIX PCPN  34  31  88 NW12      29.84R FOG     WCI  25
6HR MIN TEMP:  33; 6HR MAX TEMP:  36; 6HR PCP: TRACE;

WASHINGTON *   PTSUNNY   34  34 100 NE10      29.81R FOG     WCI  26
$$

ABBREVIATIONS USED IN REMARKS
   TC - TEMPERATURES IN CELSIUS
  WCI - WIND CHILL INDEX
   HX - HEAT INDEX
  VSB - VISIBILITY
$$





USA.gov is the U.S. government's official web portal to all federal, state and local government web resources and services.